EW4847 Weather Reports


time (UTC)temp
C
wind
direction
speed
KPH
gust
KPH
rain 1hr
cm
rain 24hr
cm
rain mn
cm
humidity
%
barometer
mb
20260504195959 -17 0.0 0.0 0.00 0.00 0.00
20260504195300 -17 0.0 0.0 0.00 0.00 0.00
20260504195144 -17 0.0 0.0 0.00 0.00 0.00
20260504194508 26 284 8.0 24.1 0.00 0.00 0.00 41 1007.0
20260504194149 -17 0.0 0.0 0.00 0.00 0.00
20260504193611 -17 0.0 0.0 0.00 0.00 0.00
20260504193122 -17 0.0 0.0 0.00 0.00 0.00
20260504193043 26 184 9.7 25.7 0.00 0.00 0.00 41 1007.0
20260504192621 -17 0.0 0.0 0.00 0.00 0.00
20260504192114 -17 0.0 0.0 0.00 0.00 0.00
20260504191604 26 265 11.3 27.4 0.00 0.00 0.00 40 1007.3
20260504191143 -17 0.0 0.0 0.00 0.00 0.00
20260504190638 -17 0.0 0.0 0.00 0.00 0.00
20260504190132 -17 0.0 0.0 0.00 0.00 0.00
20260504190037 26 197 9.7 24.1 0.00 0.00 0.00 41 1007.5
20260504185611 -17 0.0 0.0 0.00 0.00 0.00
20260504185107 -17 0.0 25.7 0.00 0.00 0.00
20260504184831 26 271 11.3 25.7 0.00 0.00 0.00 41 995.8
20260504184624 26 237 11.3 25.7 0.00 0.00 0.00 41 1007.8
20260504184122 26 273 11.3 25.7 0.00 0.00 0.00 41 995.9
20260504183605 -17 0.0 0.0 0.00 0.00 0.00
20260504183110 26 127 6.4 22.5 0.00 0.00 0.00 42 1007.7
20260504183102 -17 0.0 4.8 0.00 0.00 0.00
20260504182604 26 189 9.7 33.8 0.00 0.00 0.00 41 995.8
20260504182037 26 300 9.7 33.8 0.00 0.00 0.00 42 995.9
20260504181748 26 246 11.3 11.3 0.00 0.00 0.00 40 996.1
20260504181610 26 193 6.4 33.8 0.00 0.00 0.00 42 1007.9
20260504180939 -17 0.0 0.0 0.00 0.00 0.00
20260504180447 -17 0.0 30.6 0.00 0.00 0.00
20260504180228 26 232 11.3 30.6 0.00 0.00 0.00 44 996.1
20260504180020 25 238 9.7 30.6 0.00 0.00 0.00 41 1008.0
20260504175436 25 143 11.3 27.4 0.00 0.00 0.00 41 996.1
20260504174905 25 290 12.9 29.0 0.00 0.00 0.00 43 996.1
20260504174508 25 333 14.5 29.0 0.00 0.00 0.00 41 1008.1
20260504174405 25 279 11.3 29.0 0.00 0.00 0.00 42 996.2
20260504174228 25 248 9.7 25.7 0.00 0.00 0.00 41 996.2
20260504173336 26 284 9.7 24.1 0.00 0.00 0.00 44 996.3
20260504173141 25 253 9.7 24.1 0.00 0.00 0.00 42 1008.3
20260504172852 25 132 9.7 24.1 0.00 0.00 0.00 43 996.3
20260504172324 -17 0.0 0.0 0.00 0.00 0.00
20260504172006 -17 0.0 29.0 0.00 0.00 0.00
20260504171849 -17 0.0 0.0 0.00 0.00 0.00
20260504171508 25 188 8.0 37.0 0.00 0.00 0.00 43 1008.4
20260504170825 25 236 9.7 29.0 0.00 0.00 0.00 43 996.6
20260504170310 25 228 11.3 29.0 0.00 0.00 0.00 45 996.6
20260504170106 25 221 8.0 19.3 0.00 0.00 0.00 44 1008.7
20260504160200 23 277 8.0 17.7 0.00 0.00 0.00 48 1009.3
20260504160122 24 121 6.4 17.7 0.00 0.00 0.00 48 997.3
20260504151019 22 141 8.0 6.4 0.00 0.00 0.00 55 997.6
20260504141102 -17 0.0 0.0 0.00 0.00 0.00
20260504140547 -17 0.0 9.7 0.00 0.00 0.00
20260504130651 17 281 4.8 16.1 0.00 0.00 0.00 75 998.3
20260504130436 17 277 3.2 9.7 0.00 0.00 0.00 74 998.4
20260504120202 15 162 1.6 6.4 0.00 0.00 0.00 79 998.1
20260504110558 15 256 1.6 9.7 0.00 0.00 0.00 78 997.5
20260504100451 16 271 3.2 14.5 0.00 0.00 0.00 75 997.6
20260504081641 -17 0.0 0.0 0.00 0.00 0.00
20260504081521 17 274 1.6 8.0 0.00 0.00 0.00 70 1009.8
20260504081141 -17 0.0 0.0 0.00 0.00 0.00
20260504080616 -17 0.0 0.0 0.00 0.00 0.00
20260504080509 -17 0.0 0.0 0.00 0.00 0.00
20260504080104 17 269 3.2 11.3 0.00 0.00 0.00 69 1009.8
20260504060145 17 250 3.2 9.7 0.00 0.00 0.00 66 1011.3
20260504060106 18 167 3.2 12.9 0.00 0.00 0.00 65 999.2
20260504050724 18 296 3.2 11.3 0.00 0.00 0.00 65 999.5
20260504050526 18 266 1.6 11.3 0.00 0.00 0.00 65 999.5
20260504045958 -17 0.0 0.0 0.00 0.00 0.00
20260504045202 -17 0.0 6.4 0.00 0.00 0.00
20260504044717 18 255 3.2 11.3 0.00 0.00 0.00 65 999.7
20260504044512 17 194 0.0 11.3 0.00 0.00 0.00 65 1012.0
20260504044211 18 211 3.2 11.3 0.00 0.00 0.00 65 999.7
20260504043624 17 338 3.2 6.4 0.00 0.00 0.00 66 999.8
20260504043158 17 294 1.6 6.4 0.00 0.00 0.00 65 1012.0
20260504043115 17 309 3.2 6.4 0.00 0.00 0.00 66 999.9
20260504042916 17 146 3.2 12.9 0.00 0.00 0.00 65 999.8
20260504042512 17 281 3.2 12.9 0.00 0.00 0.00 66 999.8
20260504041907 17 312 3.2 11.3 0.00 0.00 0.00 66 999.8
20260504041544 17 297 3.2 11.3 0.00 0.00 0.00 66 1012.0
20260504041059 17 261 3.2 6.4 0.00 0.00 0.00 66 999.8
20260504040627 17 129 1.6 9.7 0.00 0.00 0.00 66 999.8
20260504040020 17 186 0.0 9.7 0.00 0.00 0.00 66 1012.1
20260504035534 -17 0.0 0.0 0.00 0.00 0.00
20260504035313 -17 0.0 0.0 0.00 0.00 0.00
20260504034540 -17 0.0 0.0 0.00 0.00 0.00
20260504034259 -17 0.0 0.0 0.00 0.00 0.00
20260504033503 -17 0.0 1.6 0.00 0.00 0.00
20260504033036 17 201 1.6 3.2 0.00 0.00 0.00 65 1012.2
20260504032917 17 230 1.6 3.2 0.00 0.00 0.00 65
20260504032753 18 230 1.6 1.6 0.00 0.00 0.00 64 1000.0
20260504032031 18 241 1.6 3.2 0.00 0.00 0.00 64 1012.1
20260504031608 17 279 0.0 4.8 0.00 0.00 0.00 64 1012.3
20260504031523 18 279 1.6 3.2 0.00 0.00 0.00 64 1012.0
20260504031155 -17 0.0 0.0 0.00 0.00 0.00
20260504031104 -17 0.0 0.0 0.00 0.00 0.00
20260504030324 -17 0.0 0.0 0.00 0.00 0.00
20260504030053 18 279 3.2 6.4 0.00 0.00 0.00 63 1012.4
20260504025439 -17 0.0 0.0 0.00 0.00 0.00
20260504024856 -17 0.0 0.0 0.00 0.00 0.00
20260504024517 18 270 3.2 11.3 0.00 0.00 0.00 63 1012.4
20260504024349 -17 0.0 0.0 0.00 0.00 0.00
20260504023820 -17 0.0 0.0 0.00 0.00 0.00
20260504023328 -17 0.0 0.0 0.00 0.00 0.00
20260504023054 18 151 0.0 6.4 0.00 0.00 0.00 62 1012.3
20260504022808 -17 0.0 0.0 0.00 0.00 0.00
20260504022251 -17 0.0 0.0 0.00 0.00 0.00
20260504021748 -17 0.0 0.0 0.00 0.00 0.00
20260504021644 -17 0.0 0.0 0.00 0.00 0.00
20260504021533 18 298 1.6 6.4 0.00 0.00 0.00 61 1012.2
20260504020752 -17 0.0 0.0 0.00 0.00 0.00
20260504020605 -17 0.0 0.0 0.00 0.00 0.00
20260504020049 18 222 0.0 3.2 0.00 0.00 0.00 60 1012.1
20260504015707 -17 0.0 0.0 0.00 0.00 0.00
20260504015158 -17 0.0 0.0 0.00 0.00 0.00
20260504014710 -17 0.0 0.0 0.00 0.00 0.00
20260504014609 18 145 0.0 6.4 0.00 0.00 0.00 59 1011.9
20260504014134 -17 0.0 0.0 0.00 0.00 0.00
20260504013642 -17 0.0 0.0 0.00 0.00 0.00
20260504013137 -17 0.0 0.0 0.00 0.00 0.00
20260504013133 19 151 0.0 3.2 0.00 0.00 0.00 57 1011.9
20260504012633 -17 0.0 0.0 0.00 0.00 0.00
20260504012514 -17 0.0 0.0 0.00 0.00 0.00
20260504011605 19 198 1.6 6.4 0.00 0.00 0.00 55 1011.9
20260504011601 -17 0.0 0.0 0.00 0.00 0.00
20260504011055 -17 0.0 0.0 0.00 0.00 0.00
20260504010541 -17 0.0 0.0 0.00 0.00 0.00
20260504010106 20 254 1.6 9.7 0.00 0.00 0.00 53 1011.7
20260504010014 -17 0.0 0.0 0.00 0.00 0.00
20260504005533 -17 0.0 0.0 0.00 0.00 0.00
20260504005004 -17 0.0 0.0 0.00 0.00 0.00
20260504004530 20 190 3.2 9.7 0.00 0.00 0.00 52 1011.7
20260504004451 -17 0.0 0.0 0.00 0.00 0.00
20260504003920 -17 0.0 0.0 0.00 0.00 0.00
20260504003419 -17 0.0 0.0 0.00 0.00 0.00
20260504003015 21 134 1.6 16.1 0.00 0.00 0.00 50 1011.9
20260504002931 -17 0.0 0.0 0.00 0.00 0.00
20260504002425 -17 0.0 0.0 0.00 0.00 0.00
20260504001919 -17 0.0 0.0 0.00 0.00 0.00
20260504001618 21 203 3.2 12.9 0.00 0.00 0.00 48 1011.9
20260504001406 -17 0.0 0.0 0.00 0.00 0.00
20260504000911 -17 0.0 0.0 0.00 0.00 0.00
20260504000413 -17 0.0 0.0 0.00 0.00 0.00
20260504000004 22 31 3.2 12.9 0.00 0.00 0.00 46 1012.0
20260503235845 -17 0.0 0.0 0.00 0.00 0.00
20260503235322 -17 0.0 11.3 0.00 0.00 0.00
20260503234748 22 294 3.2 11.3 0.00 0.00 0.00 44 999.8
20260503234507 22 218 3.2 11.3 0.00 0.00 0.00 44 1012.1
20260503234159 22 294 4.8 16.1 0.00 0.00 0.00 43 999.9
20260503233712 22 156 4.8 20.9 0.00 0.00 0.00 43 999.9
20260503233213 23 233 4.8 20.9 0.00 0.00 0.00 43 999.9
20260503233040 22 154 3.2 20.9 0.00 0.00 0.00 42 1012.3
20260503232708 23 169 6.4 17.7 0.00 0.00 0.00 43 1000.1
20260503232158 23 262 6.4 17.7 0.00 0.00 0.00 43 1000.0
20260503231658 23 284 6.4 14.5 0.00 0.00 0.00 42 1000.2
20260503231537 22 288 4.8 17.7 0.00 0.00 0.00 42 1012.4
20260503231155 -17 231 6.4 17.7 0.00 0.00 0.00
20260503230653 23 237 6.4 17.7 0.00 0.00 0.00 41 1000.2
20260503230150 -17 0.0 0.0 0.00 0.00 0.00
20260503230107 22 292 4.8 19.3 0.00 0.00 0.00 40 1012.7
20260503225642 -17 0.0 0.0 0.00 0.00 0.00
20260503225132 -17 0.0 14.5 0.00 0.00 0.00
20260503224826 23 225 4.8 14.5 0.00 0.00 0.00 39 1000.5
20260503224508 23 290 8.0 16.1 0.00 0.00 0.00 38 1012.7
20260503224429 -17 292 4.8 17.7 0.00 0.00 0.00
20260503223600 23 265 4.8 17.7 0.00 0.00 0.00 39 1000.6
20260503223055 23 174 4.8 11.3 0.00 0.00 0.00 39 1000.6
20260503223003 23 191 1.6 11.3 0.00 0.00 0.00 40 1013.0
20260503222512 -17 0.0 0.0 0.00 0.00 0.00
20260503222013 -17 0.0 0.0 0.00 0.00 0.00
20260503221510 22 249 6.4 25.7 0.00 0.00 0.00 39 1013.3
20260503221507 -17 0.0 0.0 0.00 0.00 0.00